Location: Pella
(41.4080°N, 92.9160°W)
Time: 12:06:07
(UTC-05:00)

ISS - Visible Passes

Search period start: 22 September 2018 00:00
Search period end: 02 October 2018 00:00
Orbit: 403 x 408 km, 51.6° (Epoch: 22 September)

Date Brightness Start Highest point End Pass type
(mag) Time Alt. Az. Time Alt. Az. Time Alt. Az.
22 Sep -2.2 19:34:20 10° S 19:36:47 20° SE 19:39:15 10° E visible
22 Sep -2.6 21:09:51 10° WSW 21:12:28 42° WNW 21:12:28 42° WNW visible
23 Sep -3.9 20:17:53 10° SW 20:21:10 88° NW 20:23:10 22° NE visible
23 Sep -0.3 21:55:31 10° WNW 21:55:53 12° WNW 21:55:53 12° WNW visible
24 Sep -2.0 21:03:06 10° W 21:05:58 27° NNW 21:06:23 26° N visible
25 Sep -2.6 20:10:48 10° W 20:13:56 40° NNW 20:16:45 12° NE visible
25 Sep -0.4 21:49:04 10° NW 21:49:26 11° NW 21:49:26 11° NW visible
26 Sep -1.5 20:56:34 10° WNW 20:58:57 18° NNW 20:59:41 17° N visible
27 Sep -1.7 20:04:05 10° WNW 20:06:49 23° NNW 20:09:33 10° NE visible
27 Sep -0.4 21:42:22 10° NW 21:42:31 10° NNW 21:42:31 10° NNW visible
28 Sep -1.3 20:50:01 10° NW 20:51:58 15° N 20:52:36 14° N visible
29 Sep -1.3 19:57:30 10° NW 19:59:45 17° NNW 20:02:00 10° NNE visible
29 Sep -0.4 21:35:14 10° NNW 21:35:19 10° NNW 21:35:19 10° NNW visible
30 Sep -1.3 20:43:09 10° NNW 20:44:58 14° N 20:45:19 14° N visible
01 Oct -1.2 19:50:49 10° NW 19:52:42 14° N 19:54:35 10° NNE visible
01 Oct -0.5 21:27:43 10° NNW 21:27:57 11° NNW 21:27:57 11° NNW visible
